EHI
0 0 0 0 0 0 0 0 0 0 2 6 8 9 11 12 12 14 21 27 34 43 50 56 56 55 52 50 50 50 47 42 40 37 34 31 30 28 25 23 22 22 23 23
0 0 0 0 0 0 0 0 0 0 3 7 11 11 12 13 14 16 23 28 33 41 49 54 54 53 52 51 50 50 48 43 41 40 37 35 34 32 29 26 25 26 27 26
0 0 0 0 0 0 1 1 2 2 5 10 14 14 13 16 18 20 24 29 33 40 47 49 48 47 49 49 50 50 47 42 39 39 38 38 36 34 32 30 27 28 29 28
0 0 0 1 1 2 2 3 4 5 7 10 14 15 16 21 26 27 28 31 35 38 41 41 41 43 45 46 49 49 45 40 38 37 36 35 35 34 35 33 29 27 27 27
0 0 0 1 2 2 2 3 5 7 8 9 12 14 19 27 31 32 32 33 34 33 35 37 41 44 45 45 46 46 44 42 41 39 36 34 35 37 38 37 34 30 28 27
0 0 1 2 2 1 2 4 6 8 9 11 14 17 24 32 35 34 35 34 32 31 34 38 42 44 44 43 42 42 42 43 44 43 40 37 36 37 39 40 38 34 31 29
0 1 2 3 3 3 6 10 11 12 14 18 23 27 33 37 38 38 37 32 31 34 37 39 41 42 43 42 41 40 39 40 42 43 40 38 36 36 37 39 39 37 33 31
2 3 5 7 8 9 13 15 15 17 22 27 31 35 37 38 38 39 37 32 31 34 37 38 39 41 42 41 39 37 36 36 38 39 36 35 35 35 35 36 38 37 34 31
5 5 9 13 14 14 14 14 15 20 26 32 34 35 36 36 36 37 36 33 30 30 34 36 38 40 40 38 36 35 35 34 35 35 33 33 34 35 35 35 35 34 30 28
8 8 10 13 15 15 13 12 14 18 23 28 31 32 33 34 35 35 36 34 30 30 33 36 38 39 37 34 33 33 34 33 32 31 31 32 33 33 31 31 30 28 25 23
9 8 8 10 12 14 13 12 13 14 17 22 27 28 29 33 34 34 35 34 32 32 33 34 35 36 35 34 32 32 32 31 30 28 28 29 29 26 23 22 21 21 20 20
9 8 8 9 10 11 13 13 14 15 16 20 24 25 27 30 32 32 32 33 33 33 32 31 31 31 31 30 30 31 31 30 28 27 26 26 23 19 15 12 10 10 11 12
13 11 9 9 8 9 12 15 16 17 20 22 23 24 27 30 30 28 28 29 30 28 26 25 26 26 26 26 28 29 29 27 26 26 27 25 22 19 15 11 7 5 3 3
18 15 12 11 10 9 10 14 16 19 21 22 21 21 25 28 26 24 25 25 24 21 19 18 19 20 21 22 24 26 24 21 21 23 24 23 22 21 20 17 13 8 4 2
16 14 13 14 14 11 10 13 16 19 20 20 18 18 20 22 21 21 22 21 20 17 15 15 16 16 17 18 21 22 19 16 16 18 19 18 18 19 19 19 16 11 7 5
11 12 15 17 16 14 13 14 16 17 17 16 16 16 16 17 17 18 18 19 19 17 16 16 16 16 16 17 19 18 15 13 13 14 14 13 13 15 17 17 15 11 9 8
11 13 17 17 16 14 14 15 15 16 16 15 15 14 14 14 16 18 18 18 19 18 17 16 16 16 16 16 16 15 12 11 11 11 12 12 12 12 14 14 13 11 10 10
12 14 14 13 13 14 14 14 14 14 14 12 12 13 13 14 16 19 18 17 18 18 16 14 13 13 14 13 13 13 12 11 10 10 11 11 11 10 10 10 10 10 11 12
11 12 11 10 11 13 13 12 12 11 10 8 9 11 12 13 14 15 16 15 15 16 15 12 11 11 11 11 10 11 10 8 8 9 9 8 7 7 7 7 8 9 11 12
10 11 11 10 9 10 9 9 8 8 6 6 9 11 12 14 14 13 12 11 11 12 11 9 9 10 9 8 7 8 7 6 6 7 6 5 4 4 5 6 6 8 10 11
11 10 9 7 7 6 6 6 6 7 6 7 10 12 13 14 14 12 10 9 9 9 8 6 7 9 8 5 4 5 6 5 5 5 4 3 3 2 2 4 5 5 8 10
10 9 7 5 4 5 5 7 7 7 6 7 9 11 12 11 9 9 8 8 7 6 5 4 4 5 4 2 2 4 5 4 3 3 3 2 2 1 1 2 3 3 5 7
10 8 6 5 4 5 7 8 7 6 6 7 7 8 8 6 4 4 4 5 4 2 2 2 2 1 1 0 1 2 3 2 1 1 1 1 1 0 0 1 1 1 2 3
9 7 6 5 4 5 7 7 5 5 5 5 5 6 4 2 1 1 1 1 1 0 0 0 0 0 0 0 0 1 1 1 0 0 0 0 0 0 0 0 0 0 0 1
8 7 6 5 4 4 6 5 4 3 3 3 2 2 1 0 0 0 0 0 0 0 0 0 0 0 0 0 0 0 0 0 0 0 0 0 0 0 0 0 1 1 0 0
8 7 6 5 3 3 3 3 2 1 1 1 0 0 0 0 0 0 0 0 0 0 0 0 0 0 0 0 0 0 0 0 0 0 0 0 1 1 1 1 1 1 0 0
8 7 6 4 2 1 1 1 1 0 0 0 0 0 0 0 0 0 0 0 0 0 0 0 0 0 0 0 0 0 0 0 0 0 0 1 2 3 2 1 1 0 0 0
Wind_Speed
13 13 13 11 12 12 12 11 10 8 6 4 5 6 5 4 6 7 7 6 6 5 5 5 5 5 5 5 4 5 5 4 3 3 3 3 3 2 2 2 3 3 3 3
13 14 14 15 14 13 13 11 10 7 5 3 5 6 6 4 3 6 6 5 5 5 5 4 4 5 4 4 4 5 4 4 4 3 3 3 3 2 2 2 2 2 3 3
11 14 15 16 13 13 12 10 9 8 6 4 4 5 6 6 5 4 5 5 5 4 4 4 4 4 4 4 4 4 4 3 3 3 3 3 3 3 2 3 3 3 3 3
10 12 17 11 10 11 10 9 7 5 3 3 3 4 4 5 4 3 4 3 4 4 3 4 4 4 3 4 5 4 3 3 3 3 3 3 3 3 3 2 3 3 4 3
10 13 14 12 10 9 7 7 6 4 4 2 1 3 4 6 5 3 3 3 3 3 4 3 4 4 3 4 4 4 3 3 2 3 3 2 3 3 2 3 3 3 3 2
10 12 12 8 5 5 5 6 3 3 2 1 1 3 3 6 5 4 4 3 2 2 2 2 2 3 3 3 4 4 3 3 2 2 2 2 3 3 3 3 4 3 3 3
13 13 10 6 3 3 7 1 3 2 2 0 3 4 6 6 5 5 4 3 3 3 2 2 2 2 2 2 3 2 2 2 2 2 3 3 2 2 3 4 4 4 4 4
10 12 9 4 2 1 3 4 4 4 4 4 5 6 6 5 5 4 4 3 3 3 2 2 1 1 1 1 1 1 2 2 3 3 3 3 2 3 4 4 4 4 3 4
4 3 1 4 4 5 3 3 3 3 4 4 3 4 5 4 3 3 4 3 2 2 2 2 1 1 1 1 1 1 2 3 2 3 3 3 4 4 3 3 4 4 3 4
3 3 1 1 1 1 2 2 3 3 2 2 2 3 3 3 3 3 2 2 1 1 1 1 1 1 0 1 1 1 2 2 3 4 4 4 3 3 3 3 4 4 3 3
4 2 2 2 2 2 1 1 1 1 1 1 1 2 2 2 2 2 2 1 1 1 1 1 1 1 1 1 1 2 3 3 4 5 4 3 3 3 3 3 3 4 3 3
4 2 3 2 2 3 2 1 1 1 0 0 0 0 1 2 2 1 1 1 1 1 1 1 1 1 1 1 2 2 3 3 4 4 3 3 3 3 3 4 5 6 6 5
3 3 2 2 3 3 3 2 1 1 1 1 0 0 1 1 1 1 1 1 0 1 1 1 1 1 2 2 2 3 3 3 4 4 3 3 3 3 3 3 5 6 7 8
1 1 2 2 3 3 3 2 2 2 2 1 1 1 1 1 1 1 1 1 1 1 1 1 1 2 2 2 2 3 4 4 5 4 4 4 4 4 4 4 4 4 5 9
3 3 4 3 4 4 3 3 3 3 2 2 2 2 1 1 1 1 1 1 1 1 2 2 2 2 2 2 3 4 4 4 4 4 5 4 4 5 5 5 4 3 3 4
4 5 5 5 4 4 5 5 4 4 3 3 2 1 1 1 1 2 2 2 2 3 2 2 2 3 3 3 4 4 4 6 5 5 6 5 4 5 5 4 4 4 3 3
6 6 5 5 5 5 5 5 4 4 4 3 1 1 1 1 2 3 3 2 2 2 3 3 3 3 3 4 5 5 5 5 6 6 6 5 5 5 4 4 5 4 3 3
5 5 5 5 5 4 4 4 3 3 3 2 2 2 2 2 2 3 3 3 3 3 4 3 3 3 4 4 4 5 6 5 5 5 5 5 5 5 5 5 5 5 3 3
6 5 5 4 4 2 2 2 3 2 1 2 2 2 2 2 2 3 3 3 4 4 3 2 3 5 5 4 5 5 6 6 6 5 5 6 6 6 6 6 5 4 4 3
4 3 2 2 1 1 1 2 2 2 2 2 2 3 2 2 3 3 3 4 4 3 2 2 4 5 4 3 5 6 6 6 6 6 5 6 6 6 5 5 5 4 4 3
1 2 1 1 1 1 1 1 1 2 2 2 2 2 2 3 3 3 4 4 2 2 2 3 4 3 3 4 7 6 6 6 6 6 5 5 6 6 6 5 5 4 3 3
1 1 1 1 1 1 1 1 1 1 2 2 3 3 3 4 4 3 3 2 2 1 3 3 2 2 3 6 6 6 6 6 5 5 5 5 5 5 5 5 4 4 3 2
0 1 1 1 1 1 1 1 1 2 2 2 3 3 4 4 3 3 3 2 2 2 3 3 1 2 4 6 5 5 5 5 5 4 4 5 5 5 4 5 4 3 3 2
1 1 0 1 1 1 1 1 1 2 2 2 3 2 3 3 3 2 2 1 1 1 3 1 2 3 5 5 5 5 4 4 4 4 4 5 5 4 4 4 4 3 3 3
1 1 0 0 1 1 1 1 2 2 3 2 2 2 2 2 2 2 2 2 1 2 3 2 3 4 4 5 5 4 4 3 4 4 5 4 4 4 3 3 3 3 2 2
0 1 0 0 0 1 1 1 1 1 2 2 2 2 2 2 2 2 2 3 4 4 4 2 2 2 3 3 4 4 3 3 3 3 4 4 5 4 4 4 4 3 2 2
1 0 0 1 1 1 1 1 1 2 2 2 2 2 3 2 2 3 3 3 3 3 3 4 3 2 3 3 3 3 2 2 2 3 3 4 4 4 4 4 4 3 3 3
Wind_Direction
261 266 266 257 246 244 248 257 258 248 227 201 146 126 114 123 136 137 133 134 131 135 142 148 149 150 154 161 155 158 163 172 174 181 186 201 208 206 206 221 230 228 238 244
260 262 262 259 251 251 248 245 248 249 253 186 145 129 125 122 150 146 142 145 139 144 143 148 154 156 158 162 159 159 170 177 173 181 191 204 211 201 207 226 245 244 249 248
255 261 264 255 246 244 250 252 256 254 248 189 152 134 139 154 178 163 147 142 140 145 151 155 155 157 164 166 157 155 165 182 189 189 199 210 216 199 213 230 237 243 251 249
248 252 253 258 263 252 250 255 259 261 270 212 168 146 150 140 123 116 121 126 136 145 158 167 164 167 174 173 165 164 170 184 193 198 205 205 211 213 214 228 241 243 247 240
249 246 249 256 263 266 253 264 277 278 289 295 170 125 115 105 102 89 92 107 125 149 172 167 165 168 177 180 168 175 187 196 190 198 212 210 213 216 215 227 242 246 244 245
247 249 250 255 267 279 256 247 278 269 278 317 271 226 108 93 99 93 86 91 101 111 126 129 140 162 182 194 183 190 197 198 190 199 211 219 223 222 226 229 236 242 244 241
242 251 254 263 256 247 239 244 4 336 311 290 65 69 82 81 83 86 92 86 91 88 87 93 116 147 186 203 199 189 187 191 200 210 222 220 219 226 232 237 240 239 242 238
235 247 252 311 252 291 67 53 34 26 23 57 90 95 89 82 83 95 95 85 89 91 92 95 126 161 192 213 226 184 190 202 210 217 239 232 228 237 236 237 241 244 244 249
238 232 39 18 43 77 90 72 44 44 48 49 69 93 91 84 80 83 83 77 77 91 93 81 90 137 238 233 254 234 222 214 222 229 231 236 233 238 239 237 244 250 245 247
259 219 157 101 76 83 80 70 45 45 33 34 32 80 80 83 83 82 79 73 67 80 72 53 38 3 261 238 218 235 243 230 235 235 233 230 233 231 236 240 242 247 252 258
241 224 291 291 331 2 42 74 78 54 9 343 26 82 93 98 101 98 78 75 52 50 45 35 35 6 338 268 237 253 254 249 244 239 233 232 236 242 240 235 240 241 250 256
241 205 240 270 315 319 320 298 309 342 334 9 13 122 112 108 102 101 98 80 67 22 319 347 10 341 339 296 244 248 253 256 257 259 241 238 235 243 242 233 232 234 239 247
264 240 223 230 279 292 307 319 326 314 293 281 299 254 99 100 112 101 104 95 22 309 294 298 320 310 310 303 280 265 267 266 272 267 255 250 248 245 248 238 234 240 242 242
289 276 228 238 262 268 273 287 303 299 292 296 301 270 185 148 151 173 184 224 263 294 286 286 276 280 291 289 276 272 271 266 274 275 272 266 260 257 256 254 245 239 239 237
251 255 248 230 230 249 255 248 250 252 255 267 267 251 243 225 223 248 266 286 286 274 271 268 276 287 290 278 268 265 269 271 268 276 276 273 272 270 267 266 266 257 235 235
241 239 238 232 223 239 247 245 249 250 252 256 253 252 261 260 260 265 258 263 268 274 278 282 285 291 287 286 284 274 264 264 267 273 276 275 275 280 283 278 269 262 254 248
227 224 224 235 231 236 249 256 260 263 266 268 287 284 261 274 271 269 268 272 272 277 278 273 275 281 281 282 283 282 278 273 259 266 272 276 282 284 286 284 282 276 266 244
244 245 236 241 241 235 245 256 264 270 273 294 285 274 283 288 281 287 287 280 274 274 274 280 286 278 270 277 285 286 289 289 280 275 280 279 279 275 275 275 274 274 267 254
232 238 239 237 246 243 253 266 278 267 259 271 284 293 301 299 294 290 291 290 282 275 277 295 290 281 279 283 282 270 274 280 284 283 282 279 272 271 270 269 271 272 277 276
223 215 204 218 227 252 297 304 305 292 264 254 269 275 282 288 287 287 285 280 276 281 292 304 286 287 289 288 283 280 279 281 284 284 284 284 283 282 278 274 270 272 276 272
177 149 141 184 222 252 284 294 284 289 296 280 269 272 281 287 285 282 279 282 293 318 304 275 270 281 289 289 277 279 282 283 284 285 285 286 289 291 291 286 287 290 285 283
156 144 140 191 237 250 268 288 296 306 303 291 289 290 287 286 286 280 272 280 296 318 289 285 287 314 312 297 287 282 280 281 284 289 294 294 292 292 293 297 302 306 306 310
201 161 186 239 282 286 309 300 290 289 284 285 286 286 291 298 297 293 292 300 312 305 293 304 341 348 314 292 286 284 284 284 286 290 294 299 301 301 300 305 308 308 304 306
125 116 197 225 250 262 274 296 303 290 285 280 273 272 277 284 284 286 311 8 20 310 296 287 233 280 284 285 290 294 299 302 303 305 306 305 305 308 310 307 306 309 314 311
46 62 80 232 256 277 317 311 291 283 278 284 290 293 302 314 316 329 333 345 349 295 296 273 239 259 278 300 309 314 317 329 331 322 312 310 310 309 307 307 313 319 321 317
267 252 174 217 277 293 289 285 282 282 300 318 329 338 341 339 335 335 328 327 331 313 304 311 302 263 287 304 314 321 322 323 322 319 325 326 324 326 329 336 333 325 327 331
249 304 303 283 317 315 310 312 325 334 346 352 354 349 351 353 355 351 339 333 332 330 328 324 319 324 322 321 324 329 332 339 345 341 336 333 335 340 345 344 342 346 354 0